AC0UD Weather Reports


Display with metric or nautical units.
time (UTC)temp
F
wind
direction
speed
MPH
gust
MPH
rain 1hr
in
rain 24hr
in
rain mn
in
humidity
%
barometer
mb
20260906182543 74 34 6.0 9.0 0.00 0.00 0.00 76 1019.0
20260906182042 74 211 8.0 10.0 0.00 0.00 0.00 77 1019.1
20260906181539 73 207 5.0 10.0 0.00 0.00 0.00 77 1018.9
20260906181037 73 36 8.0 11.0 0.00 0.00 0.00 78 1019.0
20260906180533 73 35 8.0 10.0 0.00 0.00 0.00 78 1019.0
20260906180031 73 31 8.0 11.0 0.00 0.00 0.00 78 1019.1
20260906175528 73 176 2.0 4.0 0.00 0.00 0.00 78 1019.4
20260906175027 73 186 4.0 10.0 0.00 0.00 0.00 78 1019.3
20260906174525 73 202 5.0 7.0 0.00 0.00 0.00 78 1019.3
20260906174025 72 193 3.0 4.0 0.00 0.00 0.00 79 1019.4
20260906173524 73 194 3.0 8.0 0.00 0.00 0.00 78 1019.4
20260906173023 73 28 9.0 11.0 0.00 0.00 0.00 78 1019.5
20260906172522 73 136 1.0 3.0 0.00 0.00 0.00 78 1019.5
20260906172021 73 199 4.0 7.0 0.00 0.00 0.00 78 1019.5
20260906171520 73 202 3.0 8.0 0.00 0.00 0.00 78 1019.2
20260906171019 72 93 3.0 6.0 0.00 0.00 0.00 79 1019.4
20260906170518 72 33 8.0 9.0 0.00 0.00 0.00 79 1019.5
20260906170006 72 89 3.0 6.0 0.00 0.00 0.00 80 1019.6
20260906165505 72 29 8.0 9.0 0.00 0.00 0.00 80 1019.7
20260906165004 72 64 3.0 9.0 0.00 0.00 0.00 79 1019.8
20260906164503 72 52 4.0 8.0 0.00 0.00 0.00 79 1019.7
20260906164002 72 73 2.0 6.0 0.00 0.00 0.00 79 1019.7
20260906163501 72 20 5.0 10.0 0.00 0.00 0.00 80 1019.6
20260906162950 71 28 7.0 8.0 0.00 0.00 0.00 81 1019.8
20260906162447 72 187 2.0 4.0 0.00 0.00 0.00 81 1019.9
20260906161946 71 199 2.0 5.0 0.00 0.00 0.00 81 1019.8
20260906161445 71 52 3.0 6.0 0.00 0.00 0.00 81 1019.8
20260906160944 71 189 2.0 4.0 0.00 0.00 0.00 81 1019.9
20260906160443 71 213 3.0 5.0 0.00 0.00 0.00 81 1019.9
20260906155942 70 39 3.0 7.0 0.00 0.00 0.00 82 1019.8
20260906155441 70 23 5.0 9.0 0.00 0.00 0.00 83 1019.8
20260906154940 69 23 7.0 9.0 0.00 0.00 0.00 84 1019.8
20260906154439 69 170 2.0 4.0 0.00 0.00 0.00 85 1019.8
20260906153925 69 210 8.0 9.0 0.00 0.00 0.00 85 1019.8
20260906153424 69 195 3.0 4.0 0.00 0.00 0.00 85 1020.0
20260906152923 69 191 3.0 8.0 0.00 0.00 0.00 85 1020.1
20260906152412 69 202 4.0 9.0 0.00 0.00 0.00 86 1020.0
20260906151911 69 202 4.0 6.0 0.00 0.00 0.00 84 1020.2
20260906151408 69 27 4.0 7.0 0.00 0.00 0.00 84 1020.2
20260906150907 69 24 6.0 8.0 0.00 0.00 0.00 85 1020.2
20260906150405 69 192 2.0 4.0 0.00 0.00 0.00 85 1020.2
20260906145851 69 205 5.0 9.0 0.00 0.00 0.00 85 1020.0
20260906145349 69 217 7.0 9.0 0.00 0.00 0.00 84 1019.8
20260906144849 69 206 4.0 6.0 0.00 0.00 0.00 84 1019.9
20260906144347 69 208 6.0 9.0 0.00 0.00 0.00 85 1019.7
20260906143847 69 214 4.0 8.0 0.00 0.00 0.00 85 1019.8
20260906143345 69 213 6.0 10.0 0.00 0.00 0.00 84 1019.8
20260906142844 69 210 5.0 9.0 0.00 0.00 0.00 85 1019.8
20260906142343 69 205 5.0 7.0 0.00 0.00 0.00 85 1019.7
20260906141842 69 201 5.0 8.0 0.00 0.00 0.00 85 1019.8
20260906141341 70 186 2.0 5.0 0.00 0.00 0.00 85 1020.0
20260906140840 70 206 3.0 5.0 0.00 0.00 0.00 84 1019.8
20260906140340 70 26 4.0 7.0 0.00 0.00 0.00 84 1019.8
20260906135838 70 57 3.0 6.0 0.00 0.00 0.00 83 1019.9
20260906135337 70 219 4.0 6.0 0.00 0.00 0.00 85 1019.8
20260906134826 70 30 5.0 7.0 0.00 0.00 0.00 85 1019.6
20260906134325 70 28 5.0 8.0 0.00 0.00 0.00 85 1019.7
20260906133825 69 29 4.0 6.0 0.00 0.00 0.00 86 1019.7
20260906133313 69 30 7.0 10.0 0.00 0.00 0.00 86 1019.6
20260906132801 69 33 5.0 8.0 0.00 0.00 0.00 86 1019.5
20260906132259 69 23 5.0 6.0 0.00 0.00 0.00 87 1019.6
20260906131758 69 21 6.0 6.0 0.00 0.00 0.00 87 1019.3
20260906131247 69 23 6.0 7.0 0.00 0.00 0.00 87 1019.4
20260906130746 69 24 3.0 7.0 0.00 0.00 0.00 87 1019.2
20260906130245 69 37 4.0 6.0 0.00 0.00 0.00 87 1019.3
20260906125744 69 105 2.0 2.0 0.00 0.00 0.00 87 1019.3
20260906125243 69 33 5.0 6.0 0.00 0.00 0.00 87 1019.3
20260906124742 69 26 5.0 6.0 0.00 0.00 0.00 87 1019.2
20260906124241 69 23 6.0 7.0 0.00 0.00 0.00 87 1019.2
20260906123740 69 27 3.0 4.0 0.00 0.00 0.00 86 1019.2
20260906123236 69 96 1.0 2.0 0.00 0.00 0.00 85 1019.2
20260906122735 69 107 2.0 2.0 0.00 0.00 0.00 85 1019.2
20260906122221 69 174 1.0 2.0 0.00 0.00 0.00 86 1019.2
20260906121708 69 188 2.0 3.0 0.00 0.00 0.00 86 1019.3
20260906121207 69 187 2.0 3.0 0.00 0.00 0.00 86 1019.2
20260906120706 69 194 3.0 3.0 0.00 0.00 0.00 86 1019.1
20260906120155 69 178 2.0 2.0 0.00 0.00 0.00 86 1019.0
20260906115653 69 193 3.0 3.0 0.00 0.00 0.00 86 1018.9
20260906115150 70 186 2.0 3.0 0.00 0.00 0.00 86 1018.9
20260906114650 70 210 6.0 8.0 0.00 0.00 0.00 85 1019.0
20260906114148 70 206 2.0 4.0 0.00 0.00 0.00 85 1019.0
20260906113647 70 208 5.0 8.0 0.00 0.00 0.00 85 1019.0
20260906113146 70 209 4.0 6.0 0.00 0.00 0.00 86 1018.9
20260906112635 70 204 4.0 5.0 0.00 0.00 0.00 85 1018.8
20260906112134 70 211 4.0 6.0 0.00 0.00 0.00 86 1018.7
20260906111633 70 210 4.0 5.0 0.00 0.00 0.00 86 1018.7
20260906111132 70 213 5.0 6.0 0.00 0.00 0.00 86 1018.7
20260906110631 70 208 4.0 6.0 0.00 0.00 0.00 86 1018.7
20260906110130 70 212 5.0 7.0 0.00 0.00 0.00 87 1018.5
20260906105629 70 211 3.0 4.0 0.00 0.00 0.00 87 1018.5
20260906105129 70 209 3.0 3.0 0.00 0.00 0.00 87 1018.6
20260906104617 70 208 3.0 3.0 0.00 0.00 0.00 87 1018.6
20260906104117 70 203 3.0 4.0 0.00 0.00 0.00 87 1018.7
20260906103616 70 209 2.0 2.0 0.00 0.00 0.00 87 1018.6
20260906103115 70 217 2.0 4.0 0.00 0.00 0.00 87 1018.5
20260906102604 70 169 1.0 2.0 0.00 0.00 0.00 87 1018.5
20260906102103 70 203 2.0 2.0 0.00 0.00 0.00 87 1018.5
20260906101600 70 205 2.0 3.0 0.00 0.00 0.00 87 1018.6
20260906101059 70 213 4.0 4.0 0.00 0.00 0.00 86 1018.5
20260906100558 70 209 3.0 4.0 0.00 0.00 0.00 86 1018.4
20260906100047 70 208 2.0 5.0 0.00 0.00 0.00 86 1018.3
20260906095546 70 207 3.0 5.0 0.00 0.00 0.00 86 1018.2
20260906095042 71 207 4.0 5.0 0.00 0.00 0.00 86 1018.0
20260906094541 71 205 4.0 5.0 0.00 0.00 0.00 85 1017.9
20260906094040 71 13 2.0 3.0 0.00 0.00 0.00 85 1017.8
20260906093539 71 194 2.0 2.0 0.00 0.00 0.00 85 1017.8
20260906093028 71 198 3.0 4.0 0.00 0.00 0.00 85 1017.7
20260906092512 71 203 3.0 4.0 0.00 0.00 0.00 85 1017.8
20260906092011 71 196 3.0 4.0 0.00 0.00 0.00 84 1017.8
20260906091510 71 141 2.0 3.0 0.00 0.00 0.00 84 1017.7
20260906091008 71 162 2.0 3.0 0.00 0.00 0.00 83 1017.7
20260906090506 71 200 2.0 3.0 0.00 0.00 0.00 83 1017.9
20260906090005 71 48 2.0 3.0 0.00 0.00 0.00 83 1017.8
20260906085453 71 139 2.0 2.0 0.00 0.00 0.00 83 1017.9
20260906084953 72 158 1.0 1.0 0.00 0.00 0.00 83 1017.8
20260906084449 72 153 1.0 2.0 0.00 0.00 0.00 83 1017.8
20260906083948 72 89 2.0 2.0 0.00 0.00 0.00 82 1017.8
20260906083447 72 125 2.0 3.0 0.00 0.00 0.00 82 1017.8
20260906082946 72 45 6.0 10.0 0.00 0.00 0.00 82 1017.7
20260906082443 72 38 4.0 7.0 0.00 0.00 0.00 82 1017.7
20260906081942 72 38 8.0 10.0 0.00 0.00 0.00 81 1017.7
20260906081441 72 24 8.0 9.0 0.00 0.00 0.00 81 1017.7
20260906080940 72 40 6.0 8.0 0.00 0.00 0.00 81 1017.7
20260906080439 72 37 9.0 10.0 0.00 0.00 0.00 81 1017.7
20260906075935 72 45 5.0 8.0 0.00 0.00 0.00 81 1017.7
20260906075433 72 37 6.0 11.0 0.00 0.00 0.00 81 1017.7
20260906074929 72 51 4.0 6.0 0.00 0.00 0.00 81 1017.7
20260906074428 73 43 5.0 7.0 0.00 0.00 0.00 81 1017.7
20260906073927 73 49 4.0 5.0 0.00 0.00 0.00 80 1017.8
20260906073426 73 54 2.0 3.0 0.00 0.00 0.00 80 1018.0
20260906072925 73 84 3.0 4.0 0.00 0.00 0.00 80 1017.9
20260906072423 73 59 3.0 4.0 0.00 0.00 0.00 80 1018.0
20260906071922 73 83 2.0 3.0 0.00 0.00 0.00 80 1017.9
20260906071421 73 47 3.0 4.0 0.00 0.00 0.00 80 1017.9
20260906070920 73 83 2.0 3.0 0.00 0.00 0.00 80 1018.0
20260906070416 73 61 1.0 2.0 0.00 0.00 0.00 80 1018.1
20260906065914 74 58 2.0 2.0 0.00 0.00 0.00 80 1018.2
20260906065414 74 60 3.0 4.0 0.00 0.00 0.00 80 1018.3
20260906064912 74 36 6.0 7.0 0.00 0.00 0.00 80 1018.2
20260906064410 74 51 6.0 8.0 0.00 0.00 0.00 80 1018.1
20260906063909 74 49 5.0 7.0 0.00 0.00 0.00 80 1018.2
20260906063356 74 39 5.0 9.0 0.00 0.00 0.00 80 1018.2
20260906062855 74 52 4.0 5.0 0.00 0.00 0.00 79 1018.2
20260906062355 74 61 4.0 6.0 0.00 0.00 0.00 79 1018.1
20260906061853 74 31 6.0 9.0 0.00 0.00 0.00 79 1018.1
20260906061352 74 40 7.0 9.0 0.00 0.00 0.00 79 1018.1
20260906060851 74 47 6.0 9.0 0.00 0.00 0.00 79 1018.3
20260906060350 74 49 4.0 9.0 0.00 0.00 0.00 79 1018.4
20260906055849 74 43 4.0 8.0 0.00 0.00 0.00 79 1018.3
20260906055338 74 55 4.0 7.0 0.00 0.00 0.00 79 1018.2
20260906054837 75 206 5.0 9.0 0.00 0.00 0.00 79 1018.2
20260906054336 75 216 8.0 11.0 0.00 0.00 0.00 78 1018.2
20260906053832 75 215 7.0 9.0 0.00 0.00 0.00 78 1018.2
20260906053321 75 216 8.0 10.0 0.00 0.00 0.00 78 1018.2
20260906052820 75 212 6.0 8.0 0.00 0.00 0.00 78 1018.1
20260906052319 75 209 6.0 8.0 0.00 0.00 0.00 77 1018.2
20260906051818 75 212 6.0 8.0 0.00 0.00 0.00 77 1018.3
20260906051315 75 212 6.0 9.0 0.00 0.00 0.00 77 1018.3
20260906050814 75 199 3.0 4.0 0.00 0.00 0.00 77 1018.4
20260906050313 75 57 2.0 4.0 0.00 0.00 0.00 77 1018.4
20260906045812 75 50 2.0 4.0 0.00 0.00 0.00 77 1018.4
20260906045311 75 205 4.0 5.0 0.00 0.00 0.00 77 1018.3
20260906044806 75 210 3.0 4.0 0.00 0.00 0.00 77 1018.3
20260906044305 75 215 5.0 8.0 0.00 0.00 0.00 77 1018.3
20260906043804 75 217 6.0 8.0 0.00 0.00 0.00 77 1018.4
20260906043303 75 217 7.0 8.0 0.00 0.00 0.00 77 1018.4
20260906042801 75 215 5.0 6.0 0.00 0.00 0.00 77 1018.5
20260906042300 75 212 3.0 4.0 0.00 0.00 0.00 77 1018.5
20260906041757 75 217 5.0 6.0 0.00 0.00 0.00 77 1018.5
20260906041256 75 215 6.0 7.0 0.00 0.00 0.00 77 1018.4
20260906040756 75 215 4.0 5.0 0.00 0.00 0.00 77 1018.4
20260906040255 75 214 2.0 3.0 0.00 0.00 0.00 77 1018.5
20260906035754 76 207 3.0 5.0 0.00 0.00 0.00 76 1018.5
20260906035250 76 199 2.0 3.0 0.00 0.00 0.00 76 1018.6
20260906034749 76 212 3.0 4.0 0.00 0.00 0.00 76 1018.6
20260906034248 76 211 2.0 2.0 0.00 0.00 0.00 76 1018.6
20260906033747 76 114 1.0 1.0 0.00 0.00 0.00 76 1018.5
20260906033246 76 180 0.0 1.0 0.00 0.00 0.00 76 1018.5
20260906032742 76 22 0.0 2.0 0.00 0.00 0.00 76 1018.6
20260906032241 76 177 0.0 1.0 0.00 0.00 0.00 76 1018.5
20260906031740 76 200 1.0 2.0 0.00 0.00 0.00 75 1018.5
20260906031236 76 204 1.0 2.0 0.00 0.00 0.00 75 1018.5
20260906030734 76 213 2.0 4.0 0.00 0.00 0.00 75 1018.6
20260906030232 76 213 3.0 4.0 0.00 0.00 0.00 75 1018.5
20260906025731 76 216 2.0 4.0 0.00 0.00 0.00 75 1018.6
20260906025230 76 212 3.0 6.0 0.00 0.00 0.00 75 1018.6
20260906024729 76 214 2.0 4.0 0.00 0.00 0.00 74 1018.6
20260906024228 77 225 2.0 6.0 0.00 0.00 0.00 74 1018.7
20260906023725 76 221 3.0 4.0 0.00 0.00 0.00 73 1018.6
20260906023225 76 218 5.0 7.0 0.00 0.00 0.00 74 1018.4
20260906022723 76 213 4.0 6.0 0.00 0.00 0.00 74 1018.2
20260906022222 76 185 1.0 3.0 0.00 0.00 0.00 73 1018.1
20260906021717 76 198 2.0 3.0 0.00 0.00 0.00 73 1018.1
20260906021216 76 206 3.0 5.0 0.00 0.00 0.00 73 1018.0
20260906020712 77 212 5.0 7.0 0.00 0.00 0.00 72 1017.9
20260906020208 77 206 4.0 8.0 0.00 0.00 0.00 72 1017.8
20260906015708 77 196 3.0 5.0 0.00 0.00 0.00 72 1017.8
20260906015206 77 206 4.0 7.0 0.00 0.00 0.00 72 1017.4
20260906014705 77 211 5.0 9.0 0.00 0.00 0.00 72 1017.2
20260906014204 77 208 6.0 11.0 0.00 0.00 0.00 72 1017.1
20260906013703 77 53 3.0 8.0 0.00 0.00 0.00 73 1016.7
20260906013152 77 190 3.0 5.0 0.00 0.00 0.00 73 1016.9
20260906012651 77 201 4.0 6.0 0.00 0.00 0.00 73 1016.9
20260906012150 78 186 4.0 5.0 0.00 0.00 0.00 73 1016.6
20260906011649 78 199 5.0 8.0 0.00 0.00 0.00 73 1016.7
20260906011147 78 187 4.0 6.0 0.00 0.00 0.00 73 1016.6
20260906010644 79 209 7.0 9.0 0.00 0.00 0.00 73 1016.6
20260906010143 79 210 10.0 13.0 0.00 0.00 0.00 72 1016.3
20260906005631 80 213 4.0 9.0 0.00 0.00 0.00 69 1016.2
20260906005130 80 208 5.0 7.0 0.00 0.00 0.00 68 1016.2
20260906004629 80 194 3.0 7.0 0.00 0.00 0.00 68 1016.1
20260906004128 80 49 4.0 6.0 0.00 0.00 0.00 67 1016.1
20260906003627 80 154 2.0 3.0 0.00 0.00 0.00 67 1015.9
20260906003126 81 130 3.0 7.0 0.00 0.00 0.00 67 1015.7
20260906002615 81 116 2.0 4.0 0.00 0.00 0.00 66 1015.7
20260906002115 81 49 4.0 7.0 0.00 0.00 0.00 66 1015.6
20260906001613 82 143 3.0 4.0 0.00 0.00 0.00 65 1015.9
20260906001113 82 26 4.0 8.0 0.00 0.00 0.00 63 1015.7
20260906000612 82 26 11.0 16.0 0.00 0.00 0.00 63 1015.7
20260906000107 82 26 9.0 13.0 0.00 0.00 0.00 63 1015.7
20260905235605 82 41 10.0 16.0 0.00 0.00 0.00 63 1015.6
20260905235102 82 31 9.0 13.0 0.00 0.00 0.00 62 1015.6
20260905234601 82 30 9.0 10.0 0.00 0.00 0.00 62 1015.7
20260905234100 82 43 12.0 17.0 0.00 0.00 0.00 63 1015.5
20260905233558 82 55 9.0 13.0 0.00 0.00 0.00 63 1015.5
20260905233047 82 42 9.0 12.0 0.00 0.00 0.00 63 1015.3
20260905232546 82 36 10.0 13.0 0.00 0.00 0.00 63 1015.2
20260905232045 82 26 11.0 20.0 0.00 0.00 0.00 62 1015.1
20260905231544 82 36 9.0 13.0 0.00 0.00 0.00 63 1015.2
20260905231043 82 23 7.0 10.0 0.00 0.00 0.00 63 1015.1
20260905230542 82 56 14.0 18.0 0.00 0.00 0.00 63 1015.1
20260905230040 82 65 14.0 18.0 0.00 0.00 0.00 63 1015.0
20260905225539 82 20 10.0 13.0 0.00 0.00 0.00 64 1014.8
20260905225038 82 41 11.0 15.0 0.00 0.00 0.00 64 1015.0
20260905224537 82 40 10.0 15.0 0.00 0.00 0.00 64 1015.0
20260905224036 82 39 12.0 16.0 0.00 0.00 0.00 64 1015.1
20260905223525 82 49 12.0 19.0 0.00 0.00 0.00 64 1015.1
20260905223014 82 31 9.0 12.0 0.00 0.00 0.00 64 1015.2
20260905222513 82 27 9.0 12.0 0.00 0.00 0.00 63 1015.2
20260905222002 82 50 13.0 18.0 0.00 0.00 0.00 63 1015.2
20260905221458 82 29 11.0 17.0 0.00 0.00 0.00 65 1015.3
20260905220954 82 50 7.0 11.0 0.00 0.00 0.00 65 1015.4
20260905220453 82 48 5.0 9.0 0.00 0.00 0.00 65 1015.3